CST,Max TemperatureF,Mean TemperatureF,Min TemperatureF,Max Dew PointF,MeanDew PointF,Min DewpointF,Max Humidity, Mean Humidity, Min Humidity, Max Sea Level PressureIn, Mean Sea Level PressureIn, Min Sea Level PressureIn, Max VisibilityMiles, Mean VisibilityMiles, Min VisibilityMiles, Max Wind SpeedMPH, Mean Wind SpeedMPH, Max Gust SpeedMPH,PrecipitationIn, CloudCover, Events, WindDirDegrees
2012-11-1,46,39,32,30,25,19,75,59,46,30.03,29.94,29.90,10,10,10,17,4,22,0.00,5,,324
2012-11-2,41,32,23,30,25,19,93,71,42,30.16,30.11,30.04,10,10,10,7,1,,0.00,1,,315
2012-11-3,44,38,33,32,29,27,81,68,53,30.24,30.20,30.17,10,10,10,7,2,,0.00,7,,131
2012-11-4,46,39,32,34,31,28,93,75,57,30.25,30.20,30.16,10,10,10,7,1,,0.00,6,,128
2012-11-5,46,39,32,32,29,27,87,69,53,30.22,30.15,30.02,10,10,7,10,3,,0.02,7,,136
2012-11-6,41,37,33,37,33,27,93,84,65,30.02,29.87,29.78,10,8,2,13,5,17,0.12,8,Rain,241
2012-11-7,41,39,37,34,31,27,87,73,57,30.12,30.08,29.94,10,10,10,10,5,,0.00,8,,317
2012-11-8,53,42,32,34,32,28,93,70,44,30.12,30.03,29.95,10,10,7,13,5,20,0.00,1,,170
2012-11-9,50,41,32,41,35,32,100,81,58,30.06,30.00,29.96,10,7,2,14,3,17,0.00,5,,113
2012-11-10,68,56,44,54,47,41,93,74,52,29.96,29.72,29.59,10,6,2,15,10,22,0.00,5,Rain,142
2012-11-11,68,48,28,50,33,16,93,73,46,29.98,29.76,29.60,10,9,2,17,11,25,0.56,7,Rain,272
2012-11-12,28,26,23,19,15,10,74,64,55,30.32,30.10,29.98,10,9,1,18,10,23,0.00,7,Snow,282
2012-11-13,39,29,19,25,18,14,80,65,45,30.44,30.37,30.32,10,10,10,7,4,,0.00,1,,200
2012-11-14,51,42,33,32,29,23,70,59,47,30.36,30.28,30.22,10,10,10,12,5,17,0.00,1,,177
2012-11-15,51,42,32,32,29,23,87,60,47,30.42,30.26,30.19,10,10,10,13,6,20,0.00,2,,252
2012-11-16,44,34,23,30,24,18,93,71,49,30.50,30.44,30.39,10,10,7,7,3,,0.00,0,,311
2012-11-17,55,42,30,36,31,28,100,70,41,30.41,30.35,30.31,10,8,2,12,4,21,0.00,0,,158
2012-11-18,57,48,39,32,30,27,70,52,33,30.31,30.22,30.17,10,10,10,15,7,23,0.00,2,,157
2012-11-19,51,42,33,41,35,30,100,67,47,30.18,30.10,30.05,10,9,1,12,4,17,0.00,6,Rain,155
2012-11-20,37,34,32,37,34,32,100,97,93,30.17,30.13,30.07,4,1,0,6,1,,0.00,7,Fog-Thunderstorm,328
2012-11-21,68,50,33,41,37,34,100,64,37,30.13,29.97,29.83,10,8,0,13,5,22,0.00,2,Fog,195
2012-11-22,62,47,32,39,33,21,70,56,42,29.92,29.76,29.63,10,10,5,25,11,36,0.00,2,,243
2012-11-23,32,28,23,23,16,12,74,64,59,30.32,30.18,29.93,10,10,4,24,18,34,0.00,8,Snow,316
2012-11-24,30,22,15,18,14,10,79,61,47,30.31,30.12,29.83,10,10,10,12,6,23,0.00,6,,236
2012-11-25,35,30,26,21,20,18,74,66,56,30.13,29.95,29.82,10,10,10,16,4,22,0.00,5,,315
2012-11-26,30,22,15,21,10,5,74,57,43,30.42,30.32,30.12,10,10,10,15,7,20,0.00,3,,315
2012-11-27,33,24,14,18,11,5,73,56,41,30.39,30.26,30.15,10,10,10,12,3,18,0.00,2,,230
2012-11-28,33,26,19,23,20,16,93,77,60,30.38,30.27,30.15,10,10,7,8,3,,0.00,2,,274
2012-11-29,44,35,26,28,25,21,87,72,53,30.14,30.08,30.03,10,10,7,9,2,,0.00,1,,107
2012-11-30,33,32,32,32,30,28,93,87,81,30.18,30.14,30.08,10,7,2,15,7,,0.00,8,Rain,111